DW9954 Weather Reports


time (UTC)temp
C
wind
direction
speed
KPH
gust
KPH
rain 1hr
cm
rain 24hr
cm
rain mn
cm
humidity
%
barometer
mb
20260506111526 -17 82 1.6 12.9 0.00 0.00 0.00 1009.5
20260506110015 -17 19 4.8 12.9 0.00 0.00 0.00 1009.6
20260506104511 -17 355 4.8 14.5 0.00 0.00 0.00 1009.6
20260506103006 -17 44 3.2 14.5 0.00 0.00 0.00 1009.4
20260506101502 -17 13 6.4 19.3 0.00 0.00 0.00 1009.4
20260506100100 -17 16 4.8 16.1 0.00 0.00 0.00 1009.4
20260506094559 -17 14 6.4 22.5 0.00 0.00 0.00 1009.3
20260506093058 -17 49 12.9 30.6 0.00 0.00 0.00 1009.4
20260506091548 -17 24 4.8 14.5 0.00 0.00 0.00 1009.2
20260506090054 -17 350 6.4 14.5 0.00 0.00 0.00 1009.1
20260506084545 -17 44 3.2 12.9 0.00 0.00 0.00 1009.1
20260506083038 -17 36 4.8 17.7 0.00 0.00 0.00 1009.1
20260506081537 -17 43 4.8 20.9 0.00 0.00 0.00 1008.9
20260506073021 -17 13 4.8 9.7 0.00 0.00 0.00 1008.7
20260506071519 -17 34 6.4 12.9 0.00 0.00 0.00 1008.8
20260506061601 -17 360 4.8 12.9 0.00 0.00 0.00 1008.5
20260506043033 -17 28 6.4 14.5 0.00 0.00 0.00 1008.3
20260506041539 -17 23 3.2 11.3 0.00 0.00 0.00 1008.3
20260506040024 -17 11 3.2 9.7 0.00 0.00 0.00 1008.3
20260506033018 -17 24 1.6 12.9 0.00 0.00 0.00 1008.4
20260506031513 -17 33 4.8 12.9 0.00 0.00 0.00 1008.5
20260506030009 -17 35 3.2 11.3 0.00 0.00 0.00 1008.7
20260506023002 -17 20 1.6 9.7 0.00 0.00 0.00 1008.8
20260506021557 -17 30 1.6 11.3 0.00 0.00 0.00 1008.8
20260506020056 -17 27 3.2 9.7 0.00 0.00 0.00 1008.9
20260506013054 -17 19 3.2 14.5 0.00 0.00 0.00 1009.1
20260506011546 -17 28 1.6 17.7 0.00 0.00 0.00 1009.1
20260506010038 -17 26 4.8 12.9 0.00 0.00 0.00 1009.3
20260506003031 -17 48 3.2 12.9 0.00 0.00 0.00 1009.4
20260506001528 -17 26 3.2 14.5 0.00 0.00 0.00 1009.7
20260506000022 -17 15 1.6 9.7 0.00 0.00 0.00 1009.9
20260505233024 -17 31 3.2 9.7 0.00 0.00 0.00 1009.9
20260505231513 -17 26 4.8 11.3 0.00 0.00 0.00 1010.0
20260505230007 -17 21 6.4 12.9 0.00 0.00 0.00 1010.1
20260505223059 -17 345 4.8 11.3 0.00 0.00 0.00 1010.2
20260505221602 -17 360 1.6 14.5 0.00 0.00 0.00 1010.2
20260505220056 -17 52 3.2 17.7 0.00 0.00 0.00 1010.4
20260505213043 -17 10 6.4 14.5 0.00 0.00 0.00 1010.5
20260505211542 -17 27 4.8 12.9 0.00 0.00 0.00 1010.6
20260505210036 -17 16 3.2 14.5 0.00 0.00 0.00 1010.7
20260505203027 -17 34 4.8 11.3 0.00 0.00 0.00 1010.9
20260505201523 -17 12 4.8 11.3 0.00 0.00 0.00 1010.9
20260505200031 -17 18 4.8 12.9 0.00 0.00 0.00 1010.7
20260505193015 -17 360 3.2 14.5 0.00 0.00 0.00 1010.7
20260505191521 -17 5 6.4 17.7 0.00 0.00 0.00 1010.6
20260505190004 -17 355 4.8 12.9 0.00 0.00 0.00 1010.4
20260505184700 -17 17 4.8 16.1 0.00 0.00 0.00 1010.4
20260505183056 -17 38 3.2 14.5 0.00 0.00 0.00 1010.4
20260505181557 -17 16 4.8 16.1 0.00 0.00 0.00 1010.3
20260505180047 -17 24 4.8 14.5 0.00 0.00 0.00 1010.3
20260505174645 -17 17 4.8 12.9 0.00 0.00 0.00 1010.4
20260505173040 -17 21 4.8 9.7 0.00 0.00 0.00 1010.5
20260505171535 -17 24 3.2 17.7 0.00 0.00 0.00 1010.5
20260505170033 -17 5 3.2 11.3 0.00 0.00 0.00 1010.5
20260505163025 -17 18 4.8 11.3 0.00 0.00 0.00 1010.6
20260505161536 -17 38 4.8 12.9 0.00 0.00 0.00 1010.5
20260505153013 -17 25 6.4 12.9 0.00 0.00 0.00 1010.8
20260505151504 -17 350 4.8 12.9 0.00 0.00 0.00 1010.8
20260505150109 -17 28 3.2 9.7 0.00 0.00 0.00 1010.8
20260505124526 -17 5 6.4 14.5 0.00 0.00 0.00 1011.6
20260505123024 -17 348 4.8 14.5 0.00 0.00 0.00 1011.5
20260505121531 -17 20 8.0 14.5 0.00 0.00 0.00 1011.7
20260505120015 -17 355 4.8 12.9 0.00 0.00 0.00 1011.5
20260505114511 -17 11 4.8 12.9 0.00 0.00 0.00 1011.5
20260505113006 -17 11 0.0 12.9 0.00 0.00 0.00 1011.6